Gage, OK

8:37 AM CDT on March 29, 2017 (GMT -0500)
Gage

Weather History for KGAG - October, 2012

Change the Weather History Date:

Tuesday, October 2, 2012

  Actual Average Record
Temperature  
Mean Temperature 58 °F -  
Max Temperature 73 °F 80 °F 95 °F (1951)
Min Temperature 42 °F 51 °F 32 °F (2004)
Degree Days  
Heating Degree Days 8    
Growing Degree Days 8 (Base 50)    
Moisture  
Dew Point 42 °F    
Average Humidity 62    
Maximum Humidity 100    
Minimum Humidity 26    
Precipitation  
Precipitation 0.00 in - - ()
Sea Level Pressure  
Sea Level Pressure 29.99 in    
Wind  
Wind Speed 4 mph (WSW)    
Max Wind Speed 12 mph    
Max Gust Speed -    
Visibility 10 miles    
Events      
Averages and records for this station are not official NWS values.
T = Trace of Precipitation, MM = Missing Value Source: NWS Daily Summary

Daily Weather History Graph

Daily Weather History Graph

Search for Another Location

Airport or City:

Trip Planner

Search our weather history database for the weather conditions in past years. The results will help you decide how hot, cold, wet, or windy it might be!

Date:

Astronomy

Oct. 02, 2012 Rise Set
Actual Time 7:35 AM CDT 7:20 PM CDT
Civil Twilight 7:09 AM CDT 7:46 PM CDT
Nautical Twilight 6:40 AM CDT 8:15 PM CDT
Astronomical Twilight 6:10 AM CDT 8:45 PM CDT
Moon 8:40 PM CDT (10/2) 9:58 AM CDT (10/2)
Length of Visible Light 12h 36m
Length of Day
11h 44m
Waning Gibbous, 94% of the Moon is Illuminated
Oct 2
Waning Gibbous
Oct 8
Last Quarter
Oct 15
New
Oct 21
First Quarter
Oct 29
Full

Hourly Weather History & Observations

Time (CDT) Temp. Windchill Dew Point Humidity Pressure Visibility Wind Dir Wind Speed Gust Speed Precip Events Conditions
12:53 AM 51.1 °F - 46.9 °F 86% 30.04 in 10.0 mi Calm Calm - N/A   Clear
1:53 AM 51.1 °F - 46.9 °F 86% 30.05 in 10.0 mi Calm Calm - N/A   Clear
2:53 AM 50.0 °F - 46.0 °F 86% 30.05 in 10.0 mi NW 4.6 mph - N/A   Clear
3:53 AM 48.0 °F - 45.0 °F 89% 30.04 in 10.0 mi WNW 4.6 mph - N/A   Clear
4:53 AM 46.9 °F - 43.0 °F 86% 30.04 in 10.0 mi West 3.5 mph - N/A   Clear
5:53 AM 45.0 °F 41.8 °F 44.1 °F 97% 30.06 in 10.0 mi SW 5.8 mph - N/A   Clear
6:53 AM 44.1 °F 40.8 °F 43.0 °F 96% 30.06 in 10.0 mi WSW 5.8 mph - N/A   Clear
7:53 AM 42.8 °F 39.3 °F 42.8 °F 100% 30.09 in 10.0 mi WSW 5.8 mph - N/A   Clear
8:53 AM 48.9 °F - 46.0 °F 90% 30.08 in 10.0 mi West 6.9 mph - N/A   Clear
9:53 AM 55.0 °F - 46.9 °F 74% 30.08 in 10.0 mi Calm Calm - N/A   Clear
10:53 AM 61.0 °F - 43.0 °F 52% 30.06 in 10.0 mi Calm Calm - N/A   Clear
11:53 AM 66.0 °F - 39.9 °F 38% 30.04 in 10.0 mi West 8.1 mph - N/A   Clear
12:53 PM 68.0 °F - 39.0 °F 35% 30.02 in 10.0 mi WSW 3.5 mph - N/A   Clear
1:53 PM 70.0 °F - 39.0 °F 32% 29.98 in 10.0 mi WNW 6.9 mph - N/A   Clear
2:53 PM 71.6 °F - 39.2 °F 31% 29.98 in 10.0 mi Calm Calm - N/A   Clear
3:53 PM 72.0 °F - 39.0 °F 30% 29.93 in 10.0 mi WSW 4.6 mph - N/A   Clear
4:53 PM 73.0 °F - 37.9 °F 28% 29.91 in 10.0 mi WNW 3.5 mph - N/A   Clear
5:53 PM 73.0 °F - 36.0 °F 26% 29.89 in 10.0 mi West 3.5 mph - N/A   Clear
6:53 PM 69.8 °F - 39.2 °F 33% 29.92 in 10.0 mi Calm Calm - N/A   Clear
7:53 PM 61.0 °F - 42.1 °F 50% 29.90 in 10.0 mi ESE 4.6 mph - N/A   Clear
8:53 PM 55.0 °F - 44.1 °F 67% 29.91 in 10.0 mi SSE 9.2 mph - N/A   Clear
9:53 PM 55.0 °F - 42.1 °F 62% 29.91 in 10.0 mi SSE 10.4 mph - N/A   Clear
10:53 PM 55.9 °F - 41.0 °F 57% 29.90 in 10.0 mi South 11.5 mph - N/A   Clear
11:53 PM 54.0 °F - 41.0 °F 62% 29.90 in 10.0 mi South 6.9 mph - N/A   Clear